Previsão horária em Barnstable

Hoje, 29 Outubro, Quinta-feira

Tempo Temperatura Precipitação Vento Pressão Humidade
00:00 +7°C° 0 mm 5 m/s 760 mmHg 86%
01:00 +7°C° 0 mm 4 m/s 760 mmHg 90%
02:00 +7°C° 0 mm 4 m/s 759 mmHg 90%
03:00 +8°C° 0 mm 3 m/s 759 mmHg 90%
04:00 +8°C° 0 mm 3 m/s 759 mmHg 89%
05:00 +8°C° 0 mm 2 m/s 759 mmHg 88%
06:00 +8°C° 0 mm 2 m/s 759 mmHg 86%
07:00 +10°C° 0 mm 1 m/s 759 mmHg 83%
08:00 +10°C° 0.6 mm 1 m/s 759 mmHg 86%
09:00 +10°C° 0.6 mm 1 m/s 758 mmHg 88%
10:00 +10°C° 0.6 mm 1 m/s 758 mmHg 90%
11:00 +10°C° 2 mm 1 m/s 757 mmHg 91%
12:00 +10°C° 2 mm 1 m/s 757 mmHg 92%
13:00 +10°C° 2 mm 1 m/s 756 mmHg 93%
14:00 +9°C° 1.9 mm 3 m/s 755 mmHg 93%
15:00 +8°C° 1.9 mm 4 m/s 754 mmHg 93%
16:00 +8°C° 1.9 mm 6 m/s 753 mmHg 92%
17:00 +7°C° 3.1 mm 8 m/s 753 mmHg 92%
18:00 +7°C° 3.1 mm 9 m/s 752 mmHg 92%
19:00 +8°C° 3.1 mm 11 m/s 751 mmHg 92%
20:00 +8°C° 1.8 mm 12 m/s 751 mmHg 91%
21:00 +7°C° 1.8 mm 12 m/s 751 mmHg 90%
22:00 +7°C° 1.8 mm 13 m/s 750 mmHg 88%
23:00 +7°C° 0.3 mm 13 m/s 751 mmHg 88%

Amanhã, 30 Outubro, Sexta-feira

Tempo Temperatura Precipitação Vento Pressão Humidade
00:00 +7°C° 0.3 mm 13 m/s 752 mmHg 87%
01:00 +7°C° 0.3 mm 13 m/s 752 mmHg 86%
02:00 +7°C° 0.5 mm 13 m/s 753 mmHg 86%
03:00 +5°C° 0.5 mm 13 m/s 753 mmHg 87%
04:00 +5°C° 0.5 mm 13 m/s 753 mmHg 87%
05:00 +4°C° 0.9 mm 13 m/s 753 mmHg 88%
06:00 +4°C° 0.9 mm 13 m/s 753 mmHg 89%
07:00 +3°C° 0.9 mm 13 m/s 754 mmHg 91%
08:00 +3°C° 2 mm 13 m/s 754 mmHg 92%
09:00 +1°C° 2 mm 13 m/s 754 mmHg 93%
10:00 0°C° 2 mm 13 m/s 754 mmHg 94%
11:00 0°C° 1.8 mm 13 m/s 755 mmHg 94%
12:00 0°C° 1.8 mm 12 m/s 756 mmHg 95%
13:00 0°C° 1.8 mm 12 m/s 756 mmHg 95%
14:00 0°C° 0.6 mm 12 m/s 757 mmHg 94%
15:00 -1°C° 0.6 mm 11 m/s 758 mmHg 92%
16:00 -1°C° 0.6 mm 11 m/s 759 mmHg 91%
17:00 +1°C° 0.2 mm 10 m/s 760 mmHg 84%
18:00 +1°C° 0.2 mm 9 m/s 761 mmHg 78%
19:00 +2°C° 0.2 mm 7 m/s 762 mmHg 72%
20:00 0°C° 0 mm 7 m/s 763 mmHg 70%
21:00 +1°C° 0 mm 6 m/s 764 mmHg 68%
22:00 -1°C° 0 mm 6 m/s 765 mmHg 66%
23:00 -1°C° 0 mm 6 m/s 766 mmHg 66%

Depois de amanhã, 31 Outubro, Sábado

Tempo Temperatura Precipitação Vento Pressão Humidade
00:00 -1°C° 0 mm 6 m/s 766 mmHg 65%
01:00 0°C° 0 mm 5 m/s 767 mmHg 65%
02:00 0°C° 0 mm 5 m/s 768 mmHg 65%
03:00 -1°C° 0 mm 5 m/s 768 mmHg 66%
04:00 -2°C° 0 mm 6 m/s 769 mmHg 66%
05:00 -1°C° 0 mm 5 m/s 770 mmHg 68%
06:00 -1°C° 0 mm 5 m/s 771 mmHg 69%
07:00 -1°C° 0 mm 4 m/s 772 mmHg 70%
08:00 +1°C° 0 mm 4 m/s 772 mmHg 63%
09:00 +4°C° 0 mm 4 m/s 773 mmHg 57%
10:00 +7°C° 0 mm 3 m/s 773 mmHg 50%
11:00 +8°C° 0 mm 3 m/s 773 mmHg 48%
12:00 +8°C° 0 mm 2 m/s 773 mmHg 46%
13:00 +9°C° 0 mm 2 m/s 773 mmHg 44%
14:00 +8°C° 0 mm 2 m/s 773 mmHg 47%
15:00 +9°C° 0 mm 1 m/s 773 mmHg 51%
16:00 +8°C° 0 mm 1 m/s 773 mmHg 54%
17:00 +6°C° 0 mm 2 m/s 773 mmHg 59%
18:00 +5°C° 0 mm 2 m/s 774 mmHg 63%
19:00 +3°C° 0 mm 3 m/s 774 mmHg 68%
20:00 +3°C° 0 mm 3 m/s 774 mmHg 68%
21:00 +4°C° 0 mm 4 m/s 773 mmHg 68%
22:00 +4°C° 0 mm 4 m/s 773 mmHg 67%
23:00 +3°C° 0 mm 5 m/s 773 mmHg 68%

1 Novembro, Domingo

Tempo Temperatura Precipitação Vento Pressão Humidade
00:00 +5°C° 0 mm 5 m/s 773 mmHg 69%
01:00 +5°C° 0 mm 5 m/s 772 mmHg 70%
02:00 +5°C° 0 mm 6 m/s 772 mmHg 71%
03:00 +7°C° 0 mm 6 m/s 771 mmHg 71%
04:00 +8°C° 0 mm 6 m/s 770 mmHg 72%
05:00 +9°C° 0 mm 7 m/s 770 mmHg 73%
06:00 +9°C° 0 mm 7 m/s 769 mmHg 73%
07:00 +10°C° 0 mm 7 m/s 768 mmHg 74%
08:00 +11°C° 0.1 mm 8 m/s 767 mmHg 76%
09:00 +11°C° 0.1 mm 8 m/s 767 mmHg 78%
10:00 +12°C° 0.1 mm 9 m/s 766 mmHg 79%
11:00 +13°C° 0.3 mm 9 m/s 764 mmHg 81%
12:00 +13°C° 0.3 mm 9 m/s 763 mmHg 82%
13:00 +15°C° 0.3 mm 9 m/s 762 mmHg 83%
14:00 +15°C° 0.4 mm 9 m/s 761 mmHg 81%
15:00 +15°C° 0.4 mm 8 m/s 759 mmHg 79%
16:00 +15°C° 0.4 mm 8 m/s 758 mmHg 77%
17:00 +15°C° 0 mm 8 m/s 758 mmHg 79%
18:00 +15°C° 0 mm 7 m/s 757 mmHg 81%
19:00 +14°C° 0 mm 7 m/s 757 mmHg 83%
20:00 +14°C° 1.4 mm 7 m/s 756 mmHg 85%
21:00 +14°C° 1.4 mm 7 m/s 754 mmHg 87%
22:00 +14°C° 1.4 mm 7 m/s 753 mmHg 89%
23:00 +12°C° 2.2 mm 8 m/s 753 mmHg 86%

2 Novembro, Segunda-feira

Tempo Temperatura Precipitação Vento Pressão Humidade
00:00 +11°C° 2.2 mm 8 m/s 752 mmHg 83%
01:00 +10°C° 2.2 mm 9 m/s 751 mmHg 80%
02:00 +7°C° 0.1 mm 9 m/s 751 mmHg 78%
03:00 +6°C° 0.1 mm 9 m/s 751 mmHg 76%
04:00 +5°C° 0.1 mm 8 m/s 751 mmHg 74%
05:00 +3°C° 0 mm 9 m/s 751 mmHg 71%
06:00 +1°C° 0 mm 9 m/s 751 mmHg 68%
07:00 0°C° 0 mm 10 m/s 752 mmHg 65%
08:00 +1°C° 0 mm 10 m/s 752 mmHg 63%
09:00 +2°C° 0 mm 9 m/s 752 mmHg 60%
10:00 +3°C° 0 mm 9 m/s 752 mmHg 58%
11:00 +3°C° 0 mm 10 m/s 752 mmHg 54%
12:00 +3°C° 0 mm 10 m/s 752 mmHg 50%
13:00 +3°C° 0 mm 11 m/s 753 mmHg 47%
14:00 +3°C° 0 mm 11 m/s 753 mmHg 46%
15:00 +2°C° 0 mm 11 m/s 754 mmHg 45%
16:00 +2°C° 0 mm 10 m/s 755 mmHg 45%
17:00 +1°C° 0 mm 10 m/s 755 mmHg 46%
18:00 0°C° 0 mm 10 m/s 756 mmHg 46%
19:00 0°C° 0 mm 10 m/s 757 mmHg 47%
20:00 -1°C° 0 mm 9 m/s 757 mmHg 48%
21:00 -1°C° 0 mm 8 m/s 757 mmHg 48%
22:00 -1°C° 0 mm 8 m/s 757 mmHg 49%
23:00 0°C° 0.1 mm 8 m/s 756 mmHg 54%

3 Novembro, Terça-feira

Tempo Temperatura Precipitação Vento Pressão Humidade
00:00 +1°C° 0.1 mm 8 m/s 755 mmHg 59%
01:00 +2°C° 0.1 mm 9 m/s 754 mmHg 63%
02:00 +2°C° 0.2 mm 10 m/s 754 mmHg 62%
03:00 +2°C° 0.2 mm 12 m/s 753 mmHg 61%
04:00 +1°C° 0.2 mm 13 m/s 752 mmHg 60%
05:00 +1°C° 0.1 mm 13 m/s 753 mmHg 61%
06:00 0°C° 0.1 mm 13 m/s 754 mmHg 62%
07:00 0°C° 0.1 mm 14 m/s 755 mmHg 63%
08:00 0°C° 0 mm 13 m/s 756 mmHg 55%
09:00 -1°C° 0 mm 12 m/s 758 mmHg 47%
10:00 -1°C° 0 mm 11 m/s 759 mmHg 39%
11:00 0°C° 0 mm 10 m/s 760 mmHg 37%
12:00 +1°C° 0 mm 10 m/s 761 mmHg 35%
13:00 +1°C° 0 mm 9 m/s 762 mmHg 33%
14:00 +1°C° 0 mm 9 m/s 763 mmHg 34%
15:00 0°C° 0 mm 8 m/s 764 mmHg 34%
16:00 0°C° 0 mm 8 m/s 765 mmHg 35%
17:00 -1°C° 0 mm 7 m/s 766 mmHg 36%
18:00 -2°C° 0 mm 7 m/s 767 mmHg 37%
19:00 -2°C° 0 mm 6 m/s 768 mmHg 39%
20:00 -3°C° 0 mm 6 m/s 769 mmHg 39%
21:00 -2°C° 0 mm 5 m/s 770 mmHg 40%
22:00 -2°C° 0 mm 5 m/s 770 mmHg 41%
23:00 -2°C° 0 mm 4 m/s 771 mmHg 43%
Mostrar mais